Wink, TX

8:22 PM CDT on April 28, 2017 (GMT -0500)
Winkler County

Weather History for KINK - December, 2012

Change the Weather History Date:

Sunday, December 23, 2012

  Actual Average Record
Temperature  
Mean Temperature 50 °F -  
Max Temperature 68 °F 58 °F 82 °F (1955)
Min Temperature 32 °F 26 °F 2 °F (1989)
Degree Days  
Heating Degree Days 15    
Moisture  
Dew Point 18 °F    
Average Humidity 33    
Maximum Humidity 53    
Minimum Humidity 23    
Precipitation  
Precipitation 0.00 in - - ()
Sea Level Pressure  
Sea Level Pressure 29.97 in    
Wind  
Wind Speed 5 mph (WNW)    
Max Wind Speed 14 mph    
Max Gust Speed 21 mph    
Visibility 10 miles    
Events      
Averages and records for this station are not official NWS values.
T = Trace of Precipitation, MM = Missing Value Source: NWS Daily Summary

Daily Weather History Graph

Daily Weather History Graph

Search for Another Location

Airport or City:

Trip Planner

Search our weather history database for the weather conditions in past years. The results will help you decide how hot, cold, wet, or windy it might be!

Date:

Astronomy

Dec. 23, 2012 Rise Set
Actual Time 7:49 AM CST 5:54 PM CST
Civil Twilight 7:23 AM CST 6:21 PM CST
Nautical Twilight 6:52 AM CST 6:51 PM CST
Astronomical Twilight 6:22 AM CST 7:21 PM CST
Moon 2:40 PM CST (12/23) 3:42 AM CST (12/23)
Length of Visible Light 10h 58m
Length of Day
10h 04m
Waxing Gibbous, 82% of the Moon is Illuminated
Dec 23
Waxing Gibbous
Dec 28
Full
Jan 4
Last Quarter
Jan 11
New
Jan 18
First Quarter

Hourly Weather History & Observations

Time (CST) Temp. Windchill Dew Point Humidity Pressure Visibility Wind Dir Wind Speed Gust Speed Precip Events Conditions
12:53 AM 37.0 °F - 8.1 °F 30% 30.01 in 10.0 mi Calm Calm - N/A   Clear
1:53 AM 34.0 °F 28.8 °F 7.0 °F 32% 30.00 in 10.0 mi North 5.8 mph - N/A   Clear
2:53 AM 33.1 °F 27.7 °F 6.1 °F 32% 30.00 in 10.0 mi NNW 5.8 mph - N/A   Clear
3:53 AM 33.1 °F 28.7 °F 6.1 °F 32% 29.99 in 10.0 mi NNW 4.6 mph - N/A   Clear
4:53 AM 32.0 °F 28.7 °F 6.1 °F 34% 29.98 in 10.0 mi NNW 3.5 mph - N/A   Clear
5:53 AM 32.0 °F 27.5 °F 7.0 °F 35% 29.98 in 10.0 mi North 4.6 mph - N/A   Clear
6:53 AM 32.0 °F 27.5 °F 6.1 °F 34% 29.99 in 10.0 mi North 4.6 mph - N/A   Clear
7:53 AM 32.0 °F 28.7 °F 7.0 °F 35% 30.02 in 10.0 mi North 3.5 mph - N/A   Clear
8:53 AM 35.1 °F - 8.1 °F 33% 30.02 in 10.0 mi Calm Calm - N/A   Clear
9:53 AM 42.1 °F - 10.0 °F 27% 30.02 in 10.0 mi Calm Calm - N/A   Clear
10:53 AM 50.0 °F - 15.1 °F 25% 30.01 in 10.0 mi Calm Calm - N/A   Clear
11:53 AM 60.1 °F - 26.1 °F 27% 29.97 in 10.0 mi WSW 9.2 mph - N/A   Clear
12:53 PM 64.9 °F - 30.0 °F 27% 29.93 in 10.0 mi West 10.4 mph - N/A   Clear
1:53 PM 66.0 °F - 30.9 °F 27% 29.92 in 10.0 mi West 13.8 mph 20.7 mph N/A   Clear
2:53 PM 68.0 °F - 30.0 °F 24% 29.91 in 10.0 mi WNW 10.4 mph - N/A   Clear
3:53 PM 66.9 °F - 28.0 °F 23% 29.91 in 10.0 mi West 6.9 mph - N/A   Clear
4:53 PM 66.0 °F - 28.0 °F 24% 29.92 in 10.0 mi WSW 4.6 mph - N/A   Clear
5:53 PM 60.1 °F - 27.0 °F 28% 29.93 in 10.0 mi WSW 6.9 mph - N/A   Clear
6:53 PM 55.0 °F - 26.1 °F 33% 29.96 in 10.0 mi West 6.9 mph - N/A   Clear
7:53 PM 52.0 °F - 25.0 °F 35% 29.97 in 10.0 mi WSW 8.1 mph - N/A   Clear
8:53 PM 48.0 °F - 25.0 °F 41% 29.98 in 10.0 mi West 8.1 mph - N/A   Clear
9:53 PM 46.0 °F 40.2 °F 24.1 °F 42% 29.97 in 10.0 mi West 12.7 mph - N/A   Clear
10:53 PM 41.0 °F 35.8 °F 21.9 °F 47% 29.99 in 10.0 mi North 8.1 mph - N/A   Clear
11:53 PM 37.9 °F 32.7 °F 21.9 °F 53% 29.97 in 10.0 mi North 6.9 mph - N/A   Clear